User: anonymous   Login
Location: ???????
(55.4362°N, 38.1183°E)
Time: 20:36:33
(UTC+00:00)
Language:

RESURS 01 DEB - Orbit

View from above orbital plane
View from above orbital plane
View from above satellite
View from above satellite

Ground track
Ground track

The orbit data is extracted from the following two-line orbital elements,

1 46895U 94074CB  22024.55512422  .00009384  00000-0  11268-2 0  9996
2 46895  97.9196  76.6708 0010289 216.9044 143.1464 14.84174742 66079
Epoch (UTC): 24 January 2022 13:19:22
Eccentricity: 0.0010289
inclination: 97.9196°
perigee height: 609 km
apogee height: 623 km
right ascension of ascending node: 76.6708°
argument of perigee: 216.9044°
revolutions per day: 14.84174742
mean anomaly at epoch: 143.1464°
orbit number at epoch: 6607

The dashed part of the orbit path shows where the satellite is in the earth's shadow,  

DLR